Theta_e
334 332 329 329 329 328 328 330 328 328 328 325 325 326 328 327 328 326 326 324 325 325 324 326 325 325 327 328 328 328 328 327 327 325 326 330 331 328 326 328 328 321 322
332 333 330 330 329 330 329 328 329 326 326 328 326 327 327 328 327 328 327 327 326 326 326 324 326 326 327 328 329 328 328 328 327 327 327 328 328 327 322 322 320 321 321
331 330 329 329 329 330 329 328 327 325 326 326 327 327 327 327 328 328 327 326 328 326 326 326 327 328 328 328 328 328 328 326 325 324 322 322 323 323 324 323 323 323 322
330 329 329 328 329 329 328 327 327 326 326 326 327 326 327 328 329 329 327 328 328 326 328 328 328 328 328 327 328 328 326 325 324 323 322 324 323 323 323 323 322 321 318
331 329 329 329 328 328 327 326 327 327 326 327 327 327 327 328 329 330 328 327 327 327 327 327 328 328 328 326 327 327 325 323 323 323 323 323 323 323 323 323 322 320 320
330 329 331 330 328 328 328 327 326 327 325 326 328 327 329 325 329 329 328 327 327 327 328 328 328 328 326 325 325 326 324 324 323 323 324 323 323 323 323 323 322 321 318
330 331 331 331 330 328 327 326 326 326 326 326 326 326 328 323 327 328 329 329 328 328 328 328 328 326 326 326 326 325 324 323 323 322 324 323 323 322 323 323 322 320 319
330 331 331 330 329 327 327 327 327 326 326 327 327 327 327 323 325 328 328 329 329 328 328 328 327 327 326 326 325 325 324 324 324 324 324 323 324 324 323 322 319 317 316
330 330 331 330 329 328 328 328 328 327 327 328 329 327 327 323 325 328 329 329 328 328 328 328 328 328 327 326 325 325 325 324 324 325 324 324 324 323 319 314 314 312 311
330 330 330 329 328 328 329 328 328 328 327 327 327 328 326 324 326 329 329 329 328 328 328 329 329 328 327 325 326 325 325 324 324 324 323 322 321 316 314 314 313 313 315
329 329 331 330 330 330 330 328 328 330 330 328 328 328 324 326 327 329 329 329 329 328 328 328 328 328 328 326 326 325 325 325 324 323 322 320 319 316 321 322 321 318 312
329 329 331 331 331 331 326 329 331 330 328 329 329 327 325 326 327 328 329 328 328 327 328 328 328 328 328 328 326 326 325 325 324 323 321 320 320 318 321 324 323 325 321
329 330 331 330 330 329 321 330 331 329 329 328 328 328 326 326 328 329 329 328 328 327 326 326 326 326 327 328 326 326 325 324 323 323 321 322 323 321 322 323 326 327 325
329 330 331 330 332 332 322 328 328 330 329 329 327 326 325 327 328 328 329 328 327 326 325 325 325 325 325 326 327 326 324 324 323 322 321 321 322 323 322 323 324 324 324
328 330 331 330 332 332 323 328 328 330 330 330 329 328 326 326 328 328 328 327 326 326 326 326 326 328 326 325 325 325 324 324 323 323 324 324 324 323 322 321 323 324 324
327 330 330 330 332 332 328 327 328 327 327 331 330 328 329 327 326 328 328 328 325 325 325 325 325 326 326 325 324 324 324 324 324 324 324 323 320 314 318 319 321 321 321
325 328 329 329 330 332 329 329 327 326 325 324 331 330 330 329 325 327 328 329 326 325 324 322 321 319 318 323 324 325 326 326 327 324 324 324 323 320 319 321 323 324 324
326 325 326 328 328 330 330 329 328 326 324 323 325 331 330 329 328 325 327 328 328 326 325 323 323 323 320 323 326 326 326 326 328 328 327 325 324 325 326 326 327 326 322
325 325 325 325 328 329 330 330 330 329 327 326 323 324 325 327 327 325 324 325 326 325 326 326 323 327 328 326 322 323 325 325 326 327 327 326 327 326 325 323 322 322 322
325 325 325 325 326 328 329 330 330 331 331 329 327 322 323 324 324 324 320 322 325 325 325 326 327 327 326 327 328 327 325 325 324 325 325 325 326 325 325 324 323 323 322
326 325 325 325 325 326 327 327 331 330 331 331 330 328 321 318 322 322 320 316 317 320 324 325 327 329 329 329 328 327 328 327 326 326 325 324 323 324 325 325 324 323 322
326 326 325 325 324 326 326 325 325 327 329 331 331 330 329 326 321 316 318 319 317 314 313 313 320 327 329 328 327 327 326 326 327 327 326 325 325 324 323 325 325 325 323
329 327 326 326 326 325 326 326 324 323 324 325 327 329 329 328 326 324 323 320 315 313 314 315 314 315 317 323 325 324 324 324 322 322 322 322 322 322 323 323 323 324 325
335 333 329 327 327 327 326 325 325 323 322 323 324 325 326 326 325 324 324 324 324 323 321 315 313 314 318 320 320 320 322 323 323 324 323 322 321 320 319 319 321 322 323
333 334 334 333 329 328 328 328 325 325 324 323 323 323 323 324 325 325 324 324 324 323 323 320 318 318 318 315 316 323 324 323 323 322 321 322 323 323 323 323 322 321 321
327 332 333 333 333 331 329 329 329 325 325 324 323 323 323 323 323 323 323 323 323 323 323 323 322 320 321 322 324 322 319 322 324 323 323 322 321 321 322 322 323 322 322
Wind_Speed
17 13 14 9 6 5 10 7 9 10 8 6 5 5 2 4 5 5 4 6 6 6 4 6 7 7 7 5 10 15 14 17 18 18 11 17 26 39 46 46 42 46 42
16 15 12 10 6 6 8 8 7 10 11 7 3 2 2 6 8 8 6 7 5 3 3 5 7 6 6 9 13 16 13 16 24 26 23 28 32 40 44 43 39 40 39
15 11 7 6 5 3 11 9 6 10 11 5 4 1 4 6 6 3 3 3 2 2 5 4 5 4 8 9 12 12 15 25 26 34 38 41 47 50 49 45 43 37 34
14 10 7 5 3 1 11 10 8 11 9 5 3 1 3 4 3 6 8 6 4 4 4 8 8 6 11 10 13 19 26 29 34 36 49 42 50 45 39 39 37 31 31
16 7 7 8 4 10 9 10 9 10 7 6 4 3 2 4 4 6 5 4 5 6 8 10 5 12 12 10 12 28 35 41 43 44 43 45 45 46 39 36 38 28 25
16 10 11 9 10 11 10 10 10 9 9 6 6 2 2 4 6 6 7 8 7 8 9 11 15 15 16 8 11 34 44 48 51 45 39 40 40 38 36 37 33 32 27
12 12 11 12 12 9 10 12 11 9 9 8 7 4 1 4 6 7 7 8 8 9 12 16 18 20 13 13 30 38 31 40 40 38 40 41 38 36 39 36 34 31 30
13 14 13 13 10 11 10 10 11 12 12 10 8 5 0 1 5 7 6 8 10 10 12 15 20 19 16 25 31 31 32 35 35 32 33 36 36 37 30 28 28 24 22
17 14 16 14 10 10 9 9 9 13 13 12 11 7 4 5 5 6 7 10 13 14 13 16 19 19 19 27 31 34 32 32 34 27 33 33 30 27 26 28 25 26 26
18 14 15 9 9 10 10 6 8 9 11 11 9 6 6 7 8 8 9 10 12 12 14 17 19 20 22 24 30 30 33 32 31 31 31 27 25 23 21 17 20 21 24
16 15 19 13 14 11 7 10 11 9 7 11 13 9 9 7 9 10 11 9 11 12 20 21 21 18 18 19 31 26 34 35 32 32 28 25 23 23 20 16 12 8 18
17 17 18 17 13 9 8 10 8 7 7 11 14 11 12 9 11 12 13 10 11 14 20 20 19 17 17 20 23 28 29 31 32 31 29 25 25 24 21 15 15 10 7
20 22 20 16 11 9 12 13 8 7 10 13 13 11 12 9 13 16 16 13 15 20 19 20 20 19 19 19 22 26 30 29 32 32 31 27 23 23 23 20 17 12 11
23 22 20 15 13 9 8 12 11 12 13 14 14 12 12 14 17 19 19 17 17 21 23 23 22 21 18 20 22 32 36 27 29 30 30 26 22 25 27 23 22 25 20
26 24 22 17 16 12 9 14 10 8 8 13 10 12 12 13 18 20 19 18 18 24 25 23 23 20 20 22 28 30 28 24 23 24 23 21 22 26 27 27 23 21 20
26 26 24 20 18 16 12 15 14 11 8 9 7 9 10 9 17 21 17 17 21 24 22 20 20 20 24 26 28 28 26 23 21 22 22 22 23 25 28 28 25 23 23
29 27 26 23 22 21 17 18 14 16 10 8 14 11 9 7 14 21 21 20 22 23 21 21 21 22 24 29 29 28 24 19 19 24 23 23 24 25 26 27 25 25 25
27 28 26 24 22 25 19 20 19 17 16 14 12 16 13 10 9 15 22 21 22 23 22 22 22 22 24 27 27 24 20 19 22 27 26 27 29 27 27 28 28 27 26
28 29 28 23 26 24 24 23 22 21 22 20 20 17 16 16 14 14 18 22 26 28 25 23 25 25 24 23 26 24 21 23 27 24 25 27 30 29 29 30 29 28 26
32 30 29 25 25 25 25 27 27 25 24 23 25 25 24 23 24 25 24 25 27 28 29 27 26 25 26 29 28 27 26 27 26 31 30 27 29 31 30 28 29 30 32
34 32 31 30 28 29 29 28 29 30 28 29 25 22 27 33 32 30 29 29 31 31 31 32 31 30 29 31 29 30 32 32 34 33 33 32 35 36 34 33 32 35 35
38 36 34 31 28 32 31 30 30 30 31 29 30 28 25 25 28 33 34 34 33 32 32 32 35 37 36 35 34 35 33 35 35 35 37 36 36 37 38 36 34 35 37
21 34 38 36 33 30 33 32 33 33 33 33 31 32 31 32 31 29 29 29 32 34 34 35 34 32 35 40 39 34 35 38 36 35 36 37 37 36 36 37 38 37 36
11 13 27 38 38 35 32 36 35 38 36 35 34 35 34 33 33 32 31 30 28 26 28 33 39 40 37 35 34 37 42 38 32 33 34 36 38 39 38 39 38 39 40
14 15 16 5 35 43 39 33 39 36 39 39 38 39 39 37 35 35 34 33 33 31 28 27 29 31 32 38 41 39 37 35 35 35 37 36 37 37 37 37 37 40 40
11 14 19 21 6 29 45 43 39 42 40 42 42 41 41 42 43 41 39 38 38 37 35 33 30 31 29 28 28 29 37 40 39 39 36 36 38 38 36 36 35 38 39
Wind_Direction
160 156 160 174 169 152 164 166 171 164 180 173 138 129 352 324 304 302 280 253 241 232 185 181 188 202 222 212 186 197 208 208 166 151 169 168 165 163 155 160 169 156 145
162 167 170 170 185 191 169 177 187 195 153 121 76 353 292 283 313 319 239 229 234 188 198 168 184 207 199 176 187 189 197 175 164 149 162 161 157 160 142 143 137 140 148
169 162 171 164 201 196 161 175 164 151 140 133 186 191 292 324 336 356 342 200 221 200 195 189 207 186 200 189 179 178 158 155 150 146 137 135 135 136 137 137 139 142 146
168 167 173 173 195 193 157 169 160 142 135 166 161 313 307 318 2 50 91 96 106 114 112 158 156 174 195 168 169 159 153 147 150 144 135 127 137 140 138 142 142 150 149
179 171 174 142 173 142 152 157 147 151 153 160 147 163 279 1 31 68 77 85 74 88 96 121 142 155 173 145 154 157 149 145 143 142 142 138 145 148 151 147 152 146 146
176 167 144 142 147 152 157 164 165 164 160 165 151 226 24 48 74 74 73 95 91 89 139 137 148 148 140 134 160 162 150 143 145 143 141 145 155 157 157 154 151 150 144
171 149 149 157 155 157 165 174 176 166 168 161 179 215 21 77 87 71 72 85 100 102 120 139 138 139 130 134 161 155 155 152 152 149 154 151 153 157 156 156 158 158 158
169 153 157 158 153 150 151 158 165 161 167 179 197 209 183 147 119 98 92 92 101 109 127 145 144 142 134 139 149 157 152 155 155 150 146 154 154 159 160 154 157 159 155
169 165 164 160 156 168 172 177 172 179 185 186 207 228 230 191 155 130 107 117 115 108 123 151 149 146 143 149 149 154 154 157 155 149 154 154 155 152 153 152 155 159 158
177 170 168 158 153 165 178 166 161 172 200 207 204 209 179 164 147 137 128 142 136 122 125 137 151 149 148 155 163 156 160 157 158 157 155 152 150 150 151 158 157 164 156
175 177 180 166 165 178 168 146 148 146 157 180 196 179 166 155 147 149 148 146 142 130 137 136 144 145 147 147 164 158 156 155 156 159 157 154 156 160 159 165 172 172 174
169 183 182 166 170 175 164 149 143 138 147 163 174 165 161 152 148 151 146 146 147 140 140 142 142 147 151 157 157 171 166 164 167 165 164 161 161 166 168 169 190 220 206
173 181 179 173 184 166 157 163 156 141 148 159 169 166 161 153 151 150 151 145 150 147 139 133 129 138 152 161 163 168 173 169 173 176 175 172 174 176 179 189 199 203 228
180 185 179 182 185 170 157 159 162 154 154 147 142 151 151 155 156 151 151 149 147 150 144 137 130 124 131 152 162 167 171 172 173 175 181 189 193 188 193 201 207 213 224
189 189 185 189 193 180 159 160 169 181 181 165 156 161 158 161 164 161 158 154 152 154 149 148 149 147 145 145 158 165 177 181 185 186 188 189 190 194 202 206 215 223 227
191 192 192 192 192 189 180 184 196 198 188 202 166 123 144 142 166 168 165 160 161 162 164 164 167 168 168 165 166 172 176 182 191 194 196 198 199 200 205 213 223 232 237
200 196 196 197 199 199 199 204 199 197 192 170 191 168 160 133 160 176 178 174 176 179 178 172 169 171 173 171 172 176 182 189 201 206 204 203 206 209 211 222 230 237 241
210 208 207 204 204 207 208 206 210 205 201 193 179 188 187 180 169 174 178 176 185 194 193 189 182 178 182 186 190 195 204 213 218 216 217 221 219 222 223 231 241 240 243
213 212 212 213 208 210 211 215 217 217 217 217 215 202 191 192 200 194 197 195 192 193 195 196 199 195 199 204 206 209 211 215 217 213 222 220 222 227 235 241 242 245 249
214 218 216 214 212 216 217 214 220 222 221 221 222 220 212 205 206 205 206 208 209 208 207 205 197 203 209 212 220 226 225 226 227 222 222 223 231 237 241 244 244 245 250
219 218 221 220 218 220 220 219 217 225 228 227 229 225 226 226 224 223 220 218 218 218 217 215 211 210 216 223 225 225 230 233 232 235 236 235 237 237 241 245 247 247 249
222 224 222 221 220 219 224 223 223 223 232 233 235 234 233 230 232 234 233 232 230 229 227 224 222 219 217 219 223 230 234 234 236 240 242 244 244 244 244 244 245 247 246
210 223 227 226 226 221 219 227 226 226 227 234 237 240 231 232 236 237 239 241 240 239 236 235 233 227 225 228 227 228 233 238 239 239 242 244 246 245 243 244 245 246 247
224 209 230 233 230 227 225 222 229 229 229 228 231 241 240 240 241 242 245 245 243 242 243 241 239 237 236 235 231 232 235 238 242 245 245 244 246 248 249 249 246 247 249
259 247 221 236 240 234 230 230 226 232 232 230 228 233 240 243 244 246 247 249 249 247 245 243 237 235 236 238 239 238 239 242 243 247 247 248 248 247 247 248 249 250 248
295 262 255 241 315 248 238 234 234 231 233 235 234 233 236 241 244 245 247 248 249 251 251 249 245 240 238 241 243 243 244 242 246 246 246 248 248 249 249 251 250 250 250